Flag for Norway Weather past 2 weeks in Halden, Norway

Now
59 °F

Cool.


Feels Like: 59 °F
Forecast: 48 / 65 °F
Wind: 3 mph from East

Location: Stromtangen Fyr

Current Time: Sep 19, 2014 at 12:07:06 AM

Latest Report: Sep 18, 2014 at 10:00 PM


Visibility: N/A

Pressure: 30.15 "Hg

Humidity: 75%

Dew point: 51 °F

Location of HaldenLocation

Historic Weather in Halden — Graph

°F

Halden temperature yesterday

Maximum temperature yesterday: 64 °F (at 5:00 PM)
Minimum temperature yesterday: 51 °F (at 6:00 AM)
Average temperature yesterday: 56 °F

Past Weeks' High & Low Weather Summary

 TemperatureHumidityPressure
High69 °F (Sep 6, 3:00 PM)90% (Sep 9, 3:00 AM)30.47 "Hg (Sep 9, 3:00 AM)
Low51 °F (Sep 18, 6:00 AM)44% (Sep 14, 2:00 PM)29.77 "Hg (Sep 9, 5:00 AM)
Average60 °F75%30.18 "Hg
* Reported Sep 3 10:00 PM — Sep 18 10:00 PM, Halden, Weather by CustomWeather, © 2014

Note: Actual official high and low records may vary slightly from our data, if they occured in-between our weather recording intervals... More about our weather records

Advertising

Halden weather history for previous 24 hours

 ConditionsComfort  
Time TempWeatherWind HumidityBarometerVisibility
10:00 PM
Sep 18
59 °FCool.3 mph75%30.15 "HgN/A
9:00 PM59 °FCool.5 mph73%30.15 "HgN/A
8:00 PM61 °FCool.3 mph69%30.14 "HgN/A
5:00 PM64 °FMild.5 mph67%30.14 "HgN/A
4:00 PM64 °FMild.6 mph69%30.15 "HgN/A
3:00 PM63 °FMild.6 mph71%30.16 "HgN/A
2:00 PM62 °FCool.6 mph73%30.17 "HgN/A
1:00 PM62 °FCool.3 mph72%30.18 "HgN/A
12:00 PM60 °FCool.3 mph72%30.19 "HgN/A
11:00 AM56 °FCool.5 mph78%30.21 "HgN/A
10:00 AM54 °FCool.6 mph83%30.21 "HgN/A
9:00 AM51 °FCool.5 mph86%30.21 "HgN/A
8:00 AM51 °FCool.6 mph88%30.20 "HgN/A
7:00 AM51 °FCool.5 mph87%30.19 "HgN/A
6:00 AM51 °FCool.5 mph86%30.19 "HgN/A
5:00 AM51 °FCool.6 mph85%30.20 "HgN/A
4:00 AM52 °FCool.6 mph83%30.21 "HgN/A
3:00 AM53 °FCool.6 mph83%30.21 "HgN/A
2:00 AM53 °FCool.6 mph81%30.21 "HgN/A
1:00 AM54 °FCool.6 mph79%30.22 "HgN/A
12:00 AM54 °FCool.6 mph79%30.22 "HgN/A
Weather by CustomWeather, © 2014

See weather overviewHow to use our weather pages